"2010-06-14 00:00:00",199180,8.43,60.24,2.438,0.329,14.21,103.3022,7.73,8.99,84.3,0,81.4,13.57,8.51,22.2
"2010-06-14 00:00:30",199181,8.5,60.99,3.016,0.56,14.57,103.3008,7.726,8.98,84.6,0,86.4,13.57,8.51,23.0
"2010-06-14 00:01:00",199182,8.44,61.94,3.083,0.59,14.62,103.3011,7.727,9,84.8,0,86.2,13.57,8.51,23.9
"2010-06-14 00:01:30",199183,8.7,61.46,2.81,0.586,8.27,103.3002,7.725,9,85.2,0,84.5,13.57,8.50,23.5
"2010-06-14 00:02:00",199184,9.02,63.68,3.217,0.567,1.137,103.3011,7.727,8.98,85.6,0,85.4,13.57,8.51,25.7
"2010-06-14 00:02:30",199185,9.34,65.87,2.695,0.466,13.11,103.3011,7.727,9,86.1,0,83.5,13.58,8.51,27.9
"2010-06-14 00:03:00",199186,9.38,65.36,3.203,0.601,1.816,103.3008,7.726,8.98,86.3,0,85.7,13.58,8.51,27.4
"2010-06-14 00:03:30",199187,9.63,66.29,3.019,0.483,9.06,103.3005,7.726,8.98,86.6,0,85.9,13.58,8.50,28.3
"2010-06-14 00:04:00",199188,9.63,66.69,1.637,0.599,4.358,103.3017,7.729,8.99,86.8,0,83.5,13.58,8.51,28.7
"2010-06-14 00:04:30",199189,9.66,64.73,2.818,0.552,8.94,103.2999,7.724,8.98,87,0,86.4,13.58,8.50,26.7
"2010-06-14 00:05:00",199190,9.77,64.78,3.216,0.409,3.878,103.2988,7.721,8.99,87.2,0,85.4,13.58,8.50,26.8
"2010-06-14 00:05:30",199191,9.5,62.7,3.093,0.626,7.888,103.2963,7.715,8.98,87.5,0,84.3,13.58,8.49,24.7
"2010-06-14 00:06:00",199192,9.38,62.18,3.277,0.491,12.22,103.2912,7.702,8.98,87.8,0,83.7,13.58,8.48,24.2
"2010-06-14 00:06:30",199193,9.59,61.44,2.631,0.414,14.06,103.2881,7.694,8.97,88.3,0,83.9,13.58,8.47,23.4
"2010-06-14 00:07:00",199194,9.27,59.6,2.742,0.646,13.64,103.281,7.676,8.96,88.6,0,84.4,13.58,8.45,21.6
"2010-06-14 00:07:30",199195,9.48,59.08,3.144,0.49,13.13,103.2725,7.654,8.95,88.8,0,83.8,13.58,8.43,21.1
"2010-06-14 00:08:00",199196,9.15,60.78,2.213,0.576,13.33,103.2696,7.647,8.96,89.1,0,83.4,13.57,8.43,22.8
"2010-06-14 00:08:30",199197,9.06,58.97,2.843,0.494,13.25,103.2636,7.631,8.95,89.3,0,83.6,13.57,8.41,21.0
"2010-06-14 00:09:00",199198,8.85,59.48,3.224,0.377,13.12,103.2648,7.634,8.95,89.5,0,83.2,13.57,8.41,21.5
"2010-06-14 00:09:30",199199,8.16,60.44,3.04,0.723,12.87,103.2649,7.634,8.93,89.7,0,84.4,13.57,8.41,22.4
"2010-06-14 00:10:00",199200,8.3,59.99,2.148,0.507,12.66,103.2622,7.628,8.94,89.9,0,84.3,13.58,8.41,22.0
"2010-06-14 00:10:30",199201,8.19,59.38,2.35,0.491,12.8,103.2596,7.621,8.93,90.1,0,83.2,13.57,8.40,21.4
"2010-06-14 00:11:00",199202,7.913,58.74,2.826,0.654,12.66,103.2613,7.625,8.92,90.2,0,82.3,13.57,8.40,20.7
"2010-06-14 00:11:30",199203,7.193,54.54,5.149,1.167,11.4,103.2587,7.619,8.89,90.3,0,84.2,13.58,8.40,16.5
"2010-06-14 00:12:00",199204,6.079,50.92,3.835,0.864,9.18,103.2581,7.617,8.65,90.2,0,82.1,13.58,8.40,12.9
"2010-06-14 00:12:30",199205,5.89,46.39,1.168,0.074,8.75,103.2593,7.62,8.65,90.4,0,83.8,13.61,8.40,8.4
"2010-06-14 00:13:00",199206,7.032,53.46,6.455,1.116,11.42,103.2584,7.618,8.74,90.7,0,82.5,13.58,8.40,15.5
"2010-06-14 00:13:30",199207,7.928,55.76,3.831,0.723,13.32,103.2578,7.617,8.86,91,0,84.5,13.59,8.40,17.8
"2010-06-14 00:14:00",199208,7.483,57.66,2.579,0.383,13.62,103.2576,7.616,8.92,91.3,0,84.2,13.59,8.39,19.7
"2010-06-14 00:14:30",199209,7.739,55.96,3.379,0.428,13.33,103.2578,7.617,8.93,91.5,0,82.7,13.59,8.40,18.0
"2010-06-14 00:15:00",199210,6.756,51.03,5.596,1.112,11.74,103.2576,7.616,8.85,91.6,0,83.8,13.58,8.39,13.0
"2010-06-14 00:15:30",199211,5.311,48.73,4.202,1.11,9.45,103.2576,7.616,8.7,91.7,0,83.2,13.59,8.39,10.7
"2010-06-14 00:16:00",199212,6.001,53.8,6.321,1.197,10.37,103.2576,7.616,8.72,91.9,0,85.1,13.59,8.39,15.8
"2010-06-14 00:16:30",199213,6.089,51.33,7.617,1.166,10.5,103.2578,7.617,8.75,92.1,0,85.2,13.59,8.40,13.3
"2010-06-14 00:17:00",199214,7.248,53.87,4.651,1.412,11.71,103.2576,7.616,8.77,92.3,0,84.9,13.59,8.39,15.9
"2010-06-14 00:17:30",199215,7.777,58.24,4.205,0.664,13.42,103.2573,7.615,8.86,92.2,0,83.9,13.59,8.39,20.2
"2010-06-14 00:18:00",199216,6.658,62.78,3.77,0.791,13.19,103.257,7.614,8.86,92.2,0,83.8,13.59,8.39,24.8
"2010-06-14 00:18:30",199217,6.952,58.65,5.774,0.944,11.62,103.2576,7.616,8.74,92.3,0,83.7,13.59,8.39,20.7
"2010-06-14 00:19:00",199218,6.321,56.47,5.809,1.08,10.49,103.2533,7.605,8.71,92.3,0,79.51,13.58,8.38,18.5
"2010-06-14 00:19:30",199219,6.083,57.14,5.896,1.073,10.07,103.2491,7.594,8.7,92.2,0,84.1,13.58,8.37,19.1
"2010-06-14 00:20:00",199220,5.22,55.8,2.989,0.683,8.86,103.2454,7.585,8.53,92,0,83.2,13.59,8.36,17.8
"2010-06-14 00:20:30",199221,6.656,67.01,5.563,0.836,12.64,103.2431,7.579,8.82,92.2,0,82.1,13.59,8.36,29.0
"2010-06-14 00:21:00",199222,6.866,66.31,3.784,0.51,13.05,103.2431,7.579,8.82,92.2,0,83.4,13.59,8.36,28.3
"2010-06-14 00:21:30",199223,6.186,65.34,5.137,0.909,12.2,103.2375,7.564,8.78,92.1,0,80.1,13.59,8.34,27.3
"2010-06-14 00:22:00",199224,5.445,63.93,7.483,1.189,10.53,103.2375,7.564,8.65,92,0,81.7,13.59,8.34,25.9
"2010-06-14 00:22:30",199225,5.005,62.78,5.508,1.126,9.66,103.2318,7.55,8.62,92,0,78.84,13.59,8.33,24.8
"2010-06-14 00:23:00",199226,4.113,58.58,3.871,0.613,8.55,103.2281,7.541,8.55,91.9,0,78.95,13.59,8.32,20.6
"2010-06-14 00:23:30",199227,4.914,58.75,5.383,1.002,9.75,103.2293,7.544,8.63,92,0,81.3,13.59,8.32,20.8
"2010-06-14 00:24:00",199228,5.904,65.19,4.474,0.895,12.37,103.2267,7.537,8.76,92.1,0,80.7,13.59,8.32,27.2
"2010-06-14 00:24:30",199229,5.37,67.57,5.128,0.89,13,103.2312,7.549,8.78,92.3,0,83.8,13.59,8.33,29.6
"2010-06-14 00:25:00",199230,5.077,65.62,5.611,1.101,11.38,103.2318,7.55,8.75,92.5,0,82.3,13.59,8.33,27.6
"2010-06-14 00:25:30",199231,5.326,65.89,6.819,1.184,10.76,103.2245,7.531,8.68,92.4,0,84,13.58,8.31,27.9
"2010-06-14 00:26:00",199232,4.903,66.03,5.683,1.229,10.08,103.2273,7.538,8.61,92.5,0,82.2,13.58,8.32,28.0
"2010-06-14 00:26:30",199233,4.102,63.56,2.113,0.448,8.25,103.225,7.533,8.5,92.5,0,84.8,13.59,8.31,25.6
"2010-06-14 00:27:00",199234,4.874,64.59,5.934,1.218,10.75,103.2236,7.529,8.61,92.4,0,82.1,13.59,8.31,26.6
"2010-06-14 00:27:30",199235,5.805,67.29,5.941,0.99,12.38,103.2236,7.529,8.76,92.7,0,80.1,13.59,8.31,29.3
"2010-06-14 00:28:00",199236,5.789,64.88,6.787,1.154,12.08,103.2219,7.525,8.72,92.7,0,81.1,13.58,8.30,26.9
"2010-06-14 00:28:30",199237,6.584,69.85,4.51,0.707,12.47,103.2182,7.515,8.67,92.4,0,80.4,13.59,8.29,31.8
"2010-06-14 00:29:00",199238,5.61,62.9,6.205,1.17,10.44,103.218,7.515,8.56,91.9,0,84.2,13.59,8.29,24.9
"2010-06-14 00:29:30",199239,4.841,57.75,5.075,0.908,9.38,103.2225,7.526,8.47,91.3,0,84.1,13.58,8.30,19.8
"2010-06-14 00:30:00",199240,4.803,65.03,6.069,1.121,10.16,103.2279,7.54,8.59,91.5,0,85.2,13.58,8.32,27.0
"2010-06-14 00:30:30",199241,5.069,62.15,5.075,1.133,10.15,103.2236,7.529,8.57,91.3,0,83.2,13.58,8.31,24.2
"2010-06-14 00:31:00",199242,6.113,64.41,5.469,1.056,12.4,103.2236,7.529,8.67,90.6,0,84.1,13.58,8.31,26.4
"2010-06-14 00:31:30",199243,6.511,67.45,3.092,0.758,12.9,103.2276,7.539,8.67,90.3,0,81.2,13.58,8.32,29.4
"2010-06-14 00:32:00",199244,5.983,62.15,5.869,1.055,11.32,103.2342,7.556,8.64,90,0,83.4,13.58,8.33,24.2
"2010-06-14 00:32:30",199245,5.873,55.53,5.882,1.193,10.34,103.2435,7.58,8.59,89.9,0,83.1,13.58,8.36,17.5
"2010-06-14 00:33:00",199246,5.157,56.14,5.246,1.119,9.51,103.2517,7.601,8.58,89.7,0,80.2,13.58,8.38,18.1
"2010-06-14 00:33:30",199247,5.862,56.75,6.754,1.115,10.76,103.252,7.602,8.64,89.7,0,84.9,13.58,8.38,18.8
"2010-06-14 00:34:00",199248,6.497,62.28,5.995,1,12.36,103.254,7.607,8.75,89.6,0,84.6,13.58,8.39,24.3
"2010-06-14 00:34:30",199249,6.622,63.48,5.606,0.968,12.44,103.2543,7.607,8.74,89.4,0,84.5,13.59,8.39,25.5
"2010-06-14 00:35:00",199250,6.753,67.09,4.133,0.968,12.48,103.2591,7.62,8.78,89.5,0,83.3,13.59,8.40,29.1
"2010-06-14 00:35:30",199251,5.72,60.56,6.025,1.207,10.52,103.2593,7.62,8.65,89.4,0,83.1,13.59,8.40,22.6
"2010-06-14 00:36:00",199252,5.949,60.7,6.045,1.166,10.36,103.2602,7.623,8.65,89.4,0,84.1,13.58,8.40,22.7
"2010-06-14 00:36:30",199253,5.752,60.68,5.568,1.118,10.57,103.2593,7.62,8.66,89.1,0,84.1,13.59,8.40,22.7
"2010-06-14 00:37:00",199254,6.081,63.66,6.489,1.143,11.74,103.2613,7.625,8.76,89.1,0,82.6,13.59,8.40,25.7
"2010-06-14 00:37:30",199255,7.188,68.38,3.956,0.513,13.27,103.2584,7.618,8.78,89.1,0,81.9,13.59,8.40,30.4
"2010-06-14 00:38:00",199256,6.73,66.98,4.854,1.048,12.8,103.2584,7.618,8.85,89.2,0,80.7,13.59,8.40,29.0
"2010-06-14 00:38:30",199257,6.633,67.04,5.438,1.108,11.54,103.2595,7.621,8.81,89.1,0,83.7,13.59,8.40,29.0
"2010-06-14 00:39:00",199258,5.734,60.42,5.94,1.08,10.19,103.2697,7.647,8.68,89.1,0,82.6,13.59,8.43,22.4
"2010-06-14 00:39:30",199259,5.711,61.07,5.937,1.112,10.91,103.281,7.676,8.73,89.4,0,82,13.58,8.45,23.1
"2010-06-14 00:40:00",199260,5.501,61.8,5.832,1.123,10.93,103.283,7.681,8.75,89.5,0,82.5,13.58,8.46,23.8
"2010-06-14 00:40:30",199261,6.306,66.24,5.118,0.956,12.71,103.2827,7.68,8.83,89.7,0,83.1,13.58,8.46,28.2
"2010-06-14 00:41:00",199262,6.232,64.46,5.488,1.013,12.43,103.2824,7.679,8.85,89.8,0,83.6,13.58,8.46,26.5
"2010-06-14 00:41:30",199263,6.159,63.83,5.277,1.052,12.05,103.283,7.681,8.89,89.9,0,81.5,13.58,8.46,25.8
"2010-06-14 00:42:00",199264,5.726,61.73,6.017,1.128,10.65,103.2824,7.679,8.73,89.9,0,79.58,13.58,8.46,23.7
"2010-06-14 00:42:30",199265,5.745,60.14,6.512,1.195,10.5,103.2821,7.679,8.75,89.9,0,80.2,13.58,8.46,22.1
"2010-06-14 00:43:00",199266,5.639,59.34,6.392,1.133,10.81,103.2827,7.68,8.75,90,0,78.59,13.58,8.46,21.3
"2010-06-14 00:43:30",199267,5.981,61.41,5.821,0.996,11.59,103.2824,7.679,8.83,90.2,0,75.18,13.58,8.46,23.4
"2010-06-14 00:44:00",199268,6.276,64.6,4.718,0.846,12.96,103.2765,7.664,8.9,90.3,0,77.21,13.58,8.44,26.6
"2010-06-14 00:44:30",199269,6.765,65.18,3.622,0.462,13,103.2748,7.66,8.92,90.3,0,75.13,13.58,8.44,27.2
"2010-06-14 00:45:00",199270,5.943,63.19,5.828,1.098,11.54,103.2731,7.656,8.82,90.2,0,74.57,13.58,8.43,25.2
"2010-06-14 00:45:30",199271,6.173,61.64,5.488,1.097,11.43,103.2706,7.649,8.79,89.9,0,79.16,13.58,8.43,23.6
"2010-06-14 00:46:00",199272,5.621,58.62,5.929,1.135,10.84,103.2672,7.64,8.74,89.5,0,72.89,13.58,8.42,20.6
"2010-06-14 00:46:30",199273,6.197,60.98,5.693,1.105,11.99,103.2708,7.65,8.79,89.2,0,75.7,13.58,8.43,23.0
"2010-06-14 00:47:00",199274,6.645,63.61,2.972,0.623,14.06,103.281,7.676,8.81,89.2,0,79.01,13.58,8.45,25.6
"2010-06-14 00:47:30",199275,6.234,63.35,4.853,0.751,13.14,103.283,7.681,8.9,89.5,0,80.4,13.58,8.46,25.3
"2010-06-14 00:48:00",199276,6.326,64.45,3.234,0.726,11.63,103.2827,7.68,8.91,89.8,0,78.29,13.58,8.46,26.4
"2010-06-14 00:48:30",199277,6.324,62.68,4.512,0.784,13.15,103.2827,7.68,8.83,89.7,0,78.27,13.58,8.46,24.7
"2010-06-14 00:49:00",199278,4.897,62.18,6.955,1.116,11.13,103.2821,7.679,8.74,89.7,0,78.74,13.58,8.46,24.2
"2010-06-14 00:49:30",199279,4.601,57.41,5.139,0.987,5.912,103.2816,7.677,8.74,89.8,0,79.06,13.59,8.46,19.4
"2010-06-14 00:50:00",199280,5.11,57.77,6.72,1.12,11.64,103.2731,7.656,8.75,89.5,0,79.64,13.59,8.43,19.8
"2010-06-14 00:50:30",199281,5.441,63.1,7.525,0.961,12.91,103.2779,7.668,8.85,89.7,0,81.5,13.59,8.45,25.1
"2010-06-14 00:51:00",199282,5.487,65.23,4.644,0.799,13.18,103.2782,7.669,8.85,89.8,0,79.41,13.59,8.45,27.2
"2010-06-14 00:51:30",199283,5.242,64.42,5.39,0.92,12.85,103.2799,7.673,8.86,90.1,0,79.9,13.59,8.45,26.4
"2010-06-14 00:52:00",199284,4.335,61.92,5.396,1.225,8.39,103.2725,7.654,8.79,90.3,0,78.78,13.58,8.43,23.9
"2010-06-14 00:52:30",199285,4.336,62.9,6.112,1.101,10.71,103.2587,7.619,8.74,90.1,0,82.2,13.59,8.40,24.9
"2010-06-14 00:53:00",199286,4.365,56.65,4.929,1.152,10.95,103.2595,7.621,8.69,90.1,0,81.9,13.58,8.40,18.7
"2010-06-14 00:53:30",199287,3.915,55.31,5.313,0.945,10.18,103.2587,7.619,8.72,90,0,76.73,13.59,8.40,17.3
"2010-06-14 00:54:00",199288,5.51,63.2,4.563,0.907,13.15,103.2584,7.618,8.88,89.9,0,83.4,13.59,8.40,25.2
"2010-06-14 00:54:30",199289,5.39,62.43,4.988,0.759,12.86,103.2624,7.628,8.8,89.7,0,84.1,13.59,8.41,24.4
"2010-06-14 00:55:00",199290,3.38,61.17,5.615,0.977,10.08,103.2731,7.656,8.76,90,0,81,13.59,8.43,23.2
"2010-06-14 00:55:30",199291,3.796,61.77,7.068,1.199,10.03,103.2657,7.637,8.74,90.2,0,80.9,13.58,8.42,23.8
"2010-06-14 00:56:00",199292,3.903,61.3,6.838,1.169,10.22,103.2609,7.624,8.74,90.3,0,83.8,13.58,8.40,23.3
"2010-06-14 00:56:30",199293,2.938,61.68,5.94,0.719,8.95,103.2607,7.624,8.67,90.3,0,84.1,13.58,8.40,23.7
"2010-06-14 00:57:00",199294,3.554,63.69,6.681,1.036,10.38,103.2587,7.619,8.72,90.4,0,83.4,13.58,8.40,25.7
"2010-06-14 00:57:30",199295,4.303,69.91,6.285,1.105,12.1,103.259,7.619,8.8,90.6,0,82.5,13.58,8.40,31.9
"2010-06-14 00:58:00",199296,4.458,73.86,4.104,1.041,12.08,103.2592,7.62,8.82,90.7,0,78.65,13.58,8.40,35.9
"2010-06-14 00:58:30",199297,3.708,67.1,6.422,1.153,10.16,103.2578,7.617,8.74,90.7,0,83.4,13.58,8.40,29.1
"2010-06-14 00:59:00",199298,3.988,68.4,6.391,1.136,10.17,103.2576,7.616,8.7,90.4,0,83.7,13.58,8.39,30.4
"2010-06-14 00:59:30",199299,3.918,69.56,5.36,1.155,10.41,103.2576,7.616,8.72,90.3,0,82.3,13.58,8.39,31.6
"2010-06-14 01:00:00",199300,2.923,67.81,2.402,0.415,8.71,103.2587,7.619,8.58,90,0,83.3,13.58,8.40,29.8
"2010-06-14 01:00:30",199301,3.711,71.99,5.717,1.142,10.47,103.2592,7.62,8.69,90.2,0,85.3,13.58,8.40,34.0
"2010-06-14 01:01:00",199302,4.124,74.01,5.912,1.051,11.69,103.2607,7.624,8.84,90.2,0,82.8,13.58,8.40,36.0
"2010-06-14 01:01:30",199303,4.14,75.36,4.876,1.052,12.09,103.2663,7.638,8.84,90.1,0.033,84.8,13.59,8.42,37.4
"2010-06-14 01:02:00",199304,3.64,70.05,6.544,1.074,10.36,103.2768,7.665,8.76,90,0,66.83,13.58,8.44,32.1
"2010-06-14 01:02:30",199305,3.333,69.44,5.893,1.105,9.72,103.2821,7.679,8.69,89.9,0,83.7,13.58,8.46,31.4
"2010-06-14 01:03:00",199306,3.511,74.37,6.503,1.138,10.19,103.283,7.681,8.75,89.9,0,84.9,13.58,8.46,36.4
"2010-06-14 01:03:30",199307,3.156,73.36,5.07,0.938,9.46,103.2824,7.679,8.7,89.9,0,77.96,13.58,8.46,35.4
"2010-06-14 01:04:00",199308,3.069,75.92,5.368,1.003,9.53,103.2816,7.677,8.66,89.9,0,83.4,13.58,8.46,37.9
"2010-06-14 01:04:30",199309,3.91,82.6,7.816,1.227,10.92,103.2819,7.678,8.81,90,0,83.2,13.58,8.46,44.6
"2010-06-14 01:05:00",199310,3.974,82.7,5.348,1.174,11.36,103.2821,7.679,8.84,89.8,0,83.7,13.58,8.46,44.7
"2010-06-14 01:05:30",199311,3.733,84.4,5.665,1.111,10.81,103.2872,7.692,8.79,89.6,0,83.4,13.58,8.47,46.4
"2010-06-14 01:06:00",199312,3.681,83.2,5.827,1.138,9.92,103.2855,7.687,8.76,89.9,0,75.9,13.58,8.47,45.2
"2010-06-14 01:06:30",199313,3.769,86.6,6.009,1.146,9.97,103.2836,7.682,8.73,89.9,0,80.4,13.58,8.46,48.6
"2010-06-14 01:07:00",199314,3.891,88.1,5.445,1.148,10.43,103.2827,7.68,8.78,90,0,78.96,13.58,8.46,50.1
"2010-06-14 01:07:30",199315,2.849,80.9,2.035,0.139,8.61,103.2827,7.68,8.63,89.8,0,66.77,13.58,8.46,42.9
"2010-06-14 01:08:00",199316,3.76,85,6.072,1.143,10.89,103.2819,7.678,8.82,90.1,0,81.4,13.59,8.46,47.0
"2010-06-14 01:08:30",199317,4.922,95.2,4.436,0.64,12.66,103.283,7.681,8.85,90.2,0,81.6,13.59,8.46,57.2
"2010-06-14 01:09:00",199318,3.267,86.5,5.249,1.051,9.36,103.2821,7.679,8.71,90.2,0,83,13.59,8.46,48.5
"2010-06-14 01:09:30",199319,3.882,90.7,6.294,1.112,10.2,103.281,7.676,8.75,90.3,0,82.1,13.59,8.45,52.7
"2010-06-14 01:10:00",199320,3.44,88,5.253,1.005,9.79,103.2816,7.677,8.76,90.2,0,80.2,13.59,8.46,50.0
"2010-06-14 01:10:30",199321,4.06,89.8,5.511,1.179,9.96,103.2824,7.679,8.72,90,0,77.68,13.59,8.46,51.8
"2010-06-14 01:11:00",199322,3.835,89.6,5.954,1.171,10.71,103.2827,7.68,8.73,90.1,0,80.1,13.59,8.46,51.6
"2010-06-14 01:11:30",199323,3.567,86.8,6.665,1.121,10.86,103.2821,7.679,8.68,90.1,0,83.3,13.59,8.46,48.8
"2010-06-14 01:12:00",199324,4.155,90.5,4.752,1.002,12.41,103.283,7.681,8.89,90.2,0,82.2,13.58,8.46,52.5
"2010-06-14 01:12:30",199325,3.645,87.1,5.628,1.177,10.77,103.2827,7.68,8.76,90,0,70.81,13.58,8.46,49.1
"2010-06-14 01:13:00",199326,2.378,80.3,2.248,0.423,8.26,103.2833,7.682,8.64,89.8,0,79.27,13.61,8.46,42.3
"2010-06-14 01:13:30",199327,3.348,82.3,6.537,1.108,9.79,103.2833,7.682,8.73,89.8,0,79.5,13.58,8.46,44.3
"2010-06-14 01:14:00",199328,3.778,81.1,6.046,1.178,10.72,103.2847,7.685,8.73,89.8,0,80.8,13.58,8.46,43.1
"2010-06-14 01:14:30",199329,3.326,81.7,6.344,1.13,10.44,103.2892,7.697,8.77,89.9,0,79.17,13.58,8.48,43.7
"2010-06-14 01:15:00",199330,3.259,79.88,5.653,1.115,10.91,103.2912,7.702,8.82,89.8,0,78.5,13.58,8.48,41.9
"2010-06-14 01:15:30",199331,4.087,82.3,4.85,0.911,12.37,103.2915,7.703,8.91,89.8,0,82.3,13.58,8.48,44.3
"2010-06-14 01:16:00",199332,3.401,78.62,7.492,1.081,10.83,103.2912,7.702,8.83,89.8,0,78.74,13.58,8.48,40.6
"2010-06-14 01:16:30",199333,2.267,72.24,1.201,0.108,8.22,103.2875,7.692,8.65,89.6,0,81.7,13.61,8.47,34.2
"2010-06-14 01:17:00",199334,2.725,72.69,4.5,0.92,9.13,103.2864,7.689,8.7,89.5,0,85,13.58,8.47,34.7
"2010-06-14 01:17:30",199335,3.206,79.26,6.001,1.144,10.52,103.2915,7.703,8.74,89.3,0,78.56,13.58,8.48,41.3
"2010-06-14 01:18:00",199336,3.113,78.19,5.223,1.07,10.2,103.2915,7.703,8.75,89.3,0,77.68,13.58,8.48,40.2
"2010-06-14 01:18:30",199337,4.103,82.7,5.243,1.02,12.42,103.2915,7.703,8.83,89.1,0,81.1,13.58,8.48,44.7
"2010-06-14 01:19:00",199338,4.247,82.5,5.154,0.935,12.77,103.2915,7.703,8.89,89.1,0,79.79,13.58,8.48,44.5
"2010-06-14 01:19:30",199339,3.775,81.3,6.18,1.136,11.54,103.2915,7.703,8.84,88.8,0,81.3,13.58,8.48,43.3
"2010-06-14 01:20:00",199340,3.265,79.01,5.414,1.072,10.08,103.2929,7.706,8.72,88.6,0,81.2,13.58,8.49,41.0
"2010-06-14 01:20:30",199341,2.888,76.88,3.606,0.743,9.08,103.2926,7.705,8.72,88.5,0,80.5,13.58,8.48,38.9
"2010-06-14 01:21:00",199342,3.727,77.01,6.314,1.099,10.3,103.2926,7.705,8.76,88.1,0,79.96,13.58,8.48,39.0
"2010-06-14 01:21:30",199343,3.908,77.79,5.96,1.131,10.61,103.2994,7.723,8.75,87.2,0,79.13,13.58,8.50,39.8
"2010-06-14 01:22:00",199344,4.805,82.8,5.356,1.02,12.46,103.3113,7.753,8.89,87,0,77.72,13.58,8.53,44.8
"2010-06-14 01:22:30",199345,5.121,85.6,3.636,0.621,13.44,103.3158,7.765,8.85,86.9,0,85.2,13.58,8.54,47.6
"2010-06-14 01:23:00",199346,4.788,82.4,5.102,0.89,12.9,103.3164,7.766,8.86,87,0,81.7,13.58,8.55,44.4
"2010-06-14 01:23:30",199347,3.729,73.32,5.941,1.01,10.19,103.3158,7.765,8.78,87,0,79.36,13.58,8.54,35.3
"2010-06-14 01:24:00",199348,3.582,69.78,4.687,0.908,9.65,103.3161,7.765,8.74,86.7,0,77.22,13.58,8.54,31.8
"2010-06-14 01:24:30",199349,4.122,69.6,5.831,1.145,10.73,103.3155,7.764,8.79,86.4,0,69.82,13.58,8.54,31.6
"2010-06-14 01:25:00",199350,5.06,71.38,5.737,1.04,12.45,103.3164,7.766,8.87,86.8,0,83,13.58,8.55,33.4
"2010-06-14 01:25:30",199351,5.279,69.6,4.382,0.94,13.25,103.3226,7.782,8.98,87.2,0,77.57,13.58,8.56,31.6
"2010-06-14 01:26:00",199352,5.405,67.66,4.528,0.961,12.44,103.3251,7.789,8.93,87.4,0,80.8,13.58,8.57,29.7
"2010-06-14 01:26:30",199353,4.348,60.49,5.414,1.008,10.37,103.3254,7.789,8.85,87.5,0,79.74,13.57,8.57,22.5
"2010-06-14 01:27:00",199354,4.626,62.67,5.887,1.159,10.73,103.3254,7.789,8.86,87.7,0,81.3,13.57,8.57,24.7
"2010-06-14 01:27:30",199355,4.542,60.46,6.104,1.115,10.29,103.3254,7.789,8.82,87.7,0,80.9,13.58,8.57,22.5
"2010-06-14 01:28:00",199356,4.995,59.25,5.927,1.136,11.45,103.3254,7.789,8.85,87.6,0,79.77,13.58,8.57,21.2
"2010-06-14 01:28:30",199357,5.881,62.19,4.157,0.822,13.29,103.3254,7.789,8.98,87.4,0,81.8,13.57,8.57,24.2
"2010-06-14 01:29:00",199358,5.62,57.97,5.047,1.024,12.89,103.3254,7.789,8.96,87.1,0.033,81.4,13.57,8.57,20.0
"2010-06-14 01:29:30",199359,6.354,58.22,1.799,0.6,13.46,103.3254,7.789,9.01,86.9,0,75.96,13.57,8.57,20.2
"2010-06-14 01:30:00",199360,6.089,52.88,6.138,0.983,12.3,103.3257,7.79,8.91,86.8,0,78.95,13.57,8.57,14.9
"2010-06-14 01:30:30",199361,6.363,53.56,4.222,0.786,12.85,103.3322,7.807,8.97,87,0,82,13.57,8.59,15.6
"2010-06-14 01:31:00",199362,4.923,46.69,4.563,0.906,7.943,103.3452,7.84,8.82,86.9,0,81.4,13.57,8.62,8.7
"2010-06-14 01:31:30",199363,5.816,51.57,5.51,1.108,12.13,103.3534,7.861,9.02,86.9,0,83,13.57,8.64,13.6
"2010-06-14 01:32:00",199364,6.262,51.3,5.269,1.035,-45.88,103.3594,7.876,9.01,86.9,0,83.3,13.57,8.66,13.3
"2010-06-14 01:32:30",199365,6.813,53.39,2.299,0.351,-4.372,103.3594,7.876,9.04,86.9,0,83.6,13.57,8.66,15.4
"2010-06-14 01:33:00",199366,6.286,50.66,4.804,0.962,6.004,103.3594,7.876,9.02,86.8,0,77.93,13.58,8.66,12.7
"2010-06-14 01:33:30",199367,6.675,50.79,4.393,0.688,4.126,103.3594,7.876,9.02,86.8,0,79.87,13.58,8.66,12.8
"2010-06-14 01:34:00",199368,5.094,42.93,4.955,0.866,8.29,103.3594,7.876,8.92,86.7,0,77.14,13.58,8.66,4.9
"2010-06-14 01:34:30",199369,6.162,47.46,5.646,1.151,9.94,103.3594,7.876,9.07,86.8,0,78.72,13.58,8.66,9.5
"2010-06-14 01:35:00",199370,6.795,49.44,4.014,0.795,13.52,103.3594,7.876,9.01,86.7,0,80.3,13.59,8.66,11.4
"2010-06-14 01:35:30",199371,6.563,47.03,5.17,0.973,13.15,103.3594,7.876,9.04,86.8,0,76.81,13.59,8.66,9.0
"2010-06-14 01:36:00",199372,6.81,47.17,3.832,0.653,13.78,103.3594,7.876,9.1,87,0,74.79,13.59,8.66,9.2
"2010-06-14 01:36:30",199373,6.595,45.19,4.966,0.913,12.96,103.3594,7.876,9.04,87,0,78.1,13.59,8.66,7.2
"2010-06-14 01:37:00",199374,6.168,41.72,5.931,1.122,11.81,103.3594,7.876,8.99,87.1,0,78.54,13.59,8.66,3.7
"2010-06-14 01:37:30",199375,6.34,43.06,5.86,1.156,7.681,103.3594,7.876,8.95,87,0,81.3,13.59,8.66,5.1
"2010-06-14 01:38:00",199376,6.594,43.37,5.639,1.029,13.16,103.3594,7.876,9.11,87.1,0,81,13.59,8.66,5.4
"2010-06-14 01:38:30",199377,7.079,44.87,4.389,0.705,13.9,103.3594,7.876,9,87,0,76.44,13.59,8.66,6.9
"2010-06-14 01:39:00",199378,7.192,46.07,2.294,0.628,13.71,103.3594,7.876,9.11,87.2,0,79.12,13.59,8.66,8.1
"2010-06-14 01:39:30",199379,6.805,45.03,1.877,0.631,13.39,103.3594,7.876,9.11,87.3,0,79.04,13.59,8.66,7.0
"2010-06-14 01:40:00",199380,6.705,43.3,3.284,0.397,13.37,103.3594,7.876,9.11,87.3,0,77.95,13.59,8.66,5.3
"2010-06-14 01:40:30",199381,6.194,43.12,3.277,0.717,12.93,103.3594,7.876,9.07,87.3,0,77.21,13.59,8.66,5.1
"2010-06-14 01:41:00",199382,4.958,36.38,5.292,1.056,10.52,103.3594,7.876,8.95,87.1,0,76.23,13.59,8.66,358.4
"2010-06-14 01:41:30",199383,4.882,35.54,5.572,1.13,10.79,103.3594,7.876,8.92,87.1,0,78.45,13.59,8.66,357.5
"2010-06-14 01:42:00",199384,4.341,32.77,4.507,0.854,-7.476,103.3594,7.876,8.96,87.2,0,78.99,13.59,8.66,354.8
"2010-06-14 01:42:30",199385,5.982,40.8,4.072,0.749,13.58,103.3594,7.876,9.08,87.4,0,84.7,13.59,8.66,2.8
"2010-06-14 01:43:00",199386,5.6,39.76,4.11,0.89,11.39,103.3594,7.876,9.09,87.6,0,79.29,13.59,8.66,1.8
"2010-06-14 01:43:30",199387,6.077,41.63,3.849,0.747,13.37,103.3594,7.876,9.11,87.7,0,75.3,13.59,8.66,3.6
"2010-06-14 01:44:00",199388,6.118,40.64,2.75,0.41,13.31,103.3594,7.876,9.13,87.6,0,79.3,13.59,8.66,2.6
"2010-06-14 01:44:30",199389,5.742,39.09,4.039,0.864,12.92,103.3594,7.876,9.1,87.6,0,70.86,13.59,8.66,1.1
"2010-06-14 01:45:00",199390,5.728,37.59,5.032,0.914,11.95,103.3594,7.876,9.03,87.6,0,80.8,13.59,8.66,359.6
"2010-06-14 01:45:30",199391,4.094,28.46,1.075,0.113,8.67,103.3588,7.875,8.85,87.5,0,80,13.61,8.65,350.5
"2010-06-14 01:46:00",199392,5.278,34.25,6.094,1.234,11.14,103.356,7.867,9.01,87.8,0,80.1,13.59,8.65,356.2
"2010-06-14 01:46:30",199393,6.455,39.09,3.634,0.743,13.08,103.3551,7.865,9.05,87.9,0,81.9,13.59,8.64,1.1
"2010-06-14 01:47:00",199394,6.379,37.85,4.458,0.83,13.2,103.3503,7.853,9.08,88.1,0,69.91,13.59,8.63,359.9
"2010-06-14 01:47:30",199395,6.48,39.09,2.037,0.528,13.51,103.3444,7.838,9.11,88.2,0,75.37,13.59,8.62,1.1
"2010-06-14 01:48:00",199396,6.591,39.2,2.702,0.627,13.59,103.3418,7.831,9.1,88.4,0,68.02,13.59,8.61,1.2
"2010-06-14 01:48:30",199397,6.821,39.16,2.588,0.514,13.31,103.3376,7.82,9.09,88.5,0,66.73,13.59,8.60,1.2
"2010-06-14 01:49:00",199398,6.487,38.42,2.558,0.536,13.16,103.3339,7.811,9.1,88.6,0,84.1,13.59,8.59,0.4
"2010-06-14 01:49:30",199399,6.36,38.48,2.83,0.634,12.92,103.3274,7.794,9.08,88.7,0,70.06,13.59,8.57,0.5
"2010-06-14 01:50:00",199400,5.939,35.73,5.087,1.008,11.61,103.3254,7.789,8.99,88.6,0,69.78,13.59,8.57,357.7
"2010-06-14 01:50:30",199401,5.356,31.64,5.475,1.183,10.09,103.3254,7.789,8.88,88.5,0,75.39,13.59,8.57,353.6
"2010-06-14 01:51:00",199402,5.432,31.82,5.56,1.161,10.57,103.3254,7.789,8.89,88.7,0,78.61,13.59,8.57,353.8
"2010-06-14 01:51:30",199403,5.799,33.3,6.217,1.384,11.34,103.3254,7.789,8.94,88.8,0,68.26,13.6,8.57,355.3
"2010-06-14 01:52:00",199404,6.999,38.91,3.65,0.939,13.33,103.3254,7.789,9.02,88.8,0,83.6,13.6,8.57,0.9
"2010-06-14 01:52:30",199405,6.959,38.41,4.473,0.964,13.37,103.3254,7.789,9.03,89,0,69.75,13.6,8.57,0.4
"2010-06-14 01:53:00",199406,7.513,38.21,4.298,0.963,13.27,103.3254,7.789,9.03,88.9,0,83.3,13.6,8.57,0.2